Miscellaneous Local Product
Issued by NWS North Platte, NE

Home | Current Version | Previous Version | Text Only | Print | Product List | Glossary On
Versions: 1 2 3 4 5 6 7 8 9 10 11 12 13 14 15 16 17 18 19 20 21 22 23 24 25 26 27 28 29 30 31 32 33 34 35 36 37 38 39 40 41 42 43 44 45 46 47 48 49 50
215
AXUS43 KLBF 192310
MISLBF


WESTERN AND NORTH CENTRAL NEBRASKA HOURLY WEATHER ROUNDUP
NATIONAL WEATHER SERVICE NORTH PLATTE NE
600 PM CDT SAT AUG 19 2017

NOTE: "FAIR" INDICATES FEW OR NO CLOUDS BELOW 12,000 FEET WITH NO
SIGNIFICANT WEATHER AND/OR OBSTRUCTIONS TO VISIBILITY.

NOTE: STATIONS NOT REPORTING VARIABLES SUCH AS SKY/WEATHER OR
PRESSURE ARE PROVIDED BY RAWS AND APRS NETWORKS AND ARE NOT UNDER
NATIONAL WEATHER SERVICE QUALITY CONTROL.

...OBSERVATIONS IN AND NEAR THE EASTERN PANHANDLE OF NEBRASKA...

CITY           SKY/WX    TMP DP  RH WIND       PRES   REMARKS
PINE RIDGE     SUNNY     95  36  12 SE7       29.85F HX  90
GORDON         FAIR      93  40  15 E6        29.87F
CHADRON        SUNNY     96  37  12 VRB3      29.84F HX  91
ALLIANCE       SUNNY     92  42  17 N6        29.90S
SIDNEY         SUNNY     93  49  22 NE10G21   29.94F HX  90
$$

...OBSERVATIONS IN NORTHERN NEBRASKA AND FAR SOUTHERN SOUTH DAKOTA...

CITY           SKY/WX    TMP DP  RH WIND       PRES   REMARKS
WINNER         FAIR      91  68  46 SE14      29.77F HX  95
VALENTINE      SUNNY     97  53  22 NW8       29.80S HX  94
THEDFORD       SUNNY     95  61  31 SW12G20   29.83F HX  95
AINSWORTH      SUNNY     92  60  33 W9        29.80S HX  92
O`NEILL        SUNNY     85  71  62 S15G23    29.82F HX  90
ORD            SUNNY     88  67  49 S14G22    29.81F HX  91
BROKEN BOW     SUNNY     91  69  48 S17G23    29.83F HX  96
VALENTINE NWR    N/A     93  55  27 W9G16       N/A  HX  91
HALSEY           N/A     96  64  34 SW8G17      N/A  HX  98
BUTTE            N/A     83  70  64 SE13        N/A
CHAMBERS         N/A     83  70  64 S3          N/A
EWING            N/A     82  72  71 S7G14       N/A
$$

...OBSERVATIONS IN SOUTHWEST NEBRASKA AND FAR NORTHEAST COLORADO...

CITY           SKY/WX    TMP DP  RH WIND       PRES   REMARKS
HOLYOKE        FAIR      95  50  21 NE8       29.89R HX  92
IMPERIAL       SUNNY     95  56  26 S9        29.85F HX  93
OGALLALA       CLOUDY    87  70  57 SW14G20   29.90R THUNDER HX  91
NORTH PLATTE   CLOUDY    90  68  48 S5        29.83F HX  94
MCCOOK         SUNNY     96  64  34 S18G24    29.82F HX  98
LEXINGTON      SUNNY     91  67  46 SE12      29.84F HX  94
STAPLETON        N/A     94  67  41 CALM        N/A  HX  98
GOTHENBURG       N/A     93  62  35 SE9         N/A  HX  93
CALLAWAY         N/A     89  69  52 S20         N/A  HX  93
$$

...OBSERVATIONS IN CENTRAL LINCOLN COUNTY AREA...

CITY           SKY/WX    TMP DP  RH WIND       PRES   REMARKS
N.P. AIRPORT   CLOUDY    90  68  48 S5        29.83F HX  94
N.P. DOWNTOWN    N/A     91  69  48 CALM        N/A  HX  95
N.P. SOUTHEAST   N/A     91  68  46 S3          N/A  HX  94
N.P. HILLCREST   N/A     90  67  47 S7          N/A  HX  93
$$

...SOME OBSERVATIONS FROM AROUND THE REGION...

CITY           SKY/WX    TMP DP  RH WIND       PRES   REMARKS
DENVER         MOSUNNY   92  29  10 E5        29.99F
LIMON          SUNNY     89  37  16 CALM      30.02F
ASPEN          CLOUDY    78  33  19 CALM      30.27F
LARAMIE        SUNNY     81  17   9 W18G26    30.17F
CASPER         SUNNY     88  23   9 W9        29.99F
CHEYENNE       SUNNY     88  19   8 NW14G20   30.07F
SCOTTSBLUFF    SUNNY     96  31  10 NW6       29.90F HX  90
GRAND ISLAND   SUNNY     85  73  67 SE14      29.85F HX  91
OMAHA          MOSUNNY   86  61  42 SE16      29.88F
SIOUX FALLS    MOSUNNY   80  65  59 S14       29.85F
PIERRE         SUNNY     92  61  35 SE14      29.73F HX  92
RAPID CITY     SUNNY     91  48  22 NW10      29.84F
BISMARCK       MOSUNNY   86  63  45 SW6       29.73F
KANSAS CITY    SUNNY     90  66  45 CALM      29.91F HX  92
HILL CITY      SUNNY    100  51  19 S13G20    29.84F HX  97
WICHITA        CLOUDY    92  58  31 SE15      29.88S HX  91
DODGE CITY     CLOUDY    96  53  23 S15       29.91F HX  93
OKLAHOMA CITY  MOSUNNY   94  68  42 S13       29.91S HX  98
DALLAS         PTSUNNY   96  69  41 S6        29.89F HX 102
AMARILLO       PTSUNNY   88  60  38 S13       30.02F
$$




USA.gov is the U.S. government's official web portal to all federal, state and local government web resources and services.